TimeEDT,TemperatureF,Dew PointF,Humidity,Sea Level PressureIn,VisibilityMPH,Wind Direction,Wind SpeedMPH,Gust SpeedMPH,PrecipitationIn,Events,Conditions,WindDirDegrees,DateUTC
12:33 AM,57.2,53.6,88,30.30,4.0,North,10.4,-,0.07,Rain,Heavy Rain,360,2012-09-14 04:33:00
12:54 AM,57.0,54.0,89,30.30,6.0,North,8.1,-,0.12,Rain,Rain,350,2012-09-14 04:54:00
1:03 AM,57.2,55.4,94,30.30,8.0,North,9.2,-,0.00,Rain,Light Rain,360,2012-09-14 05:03:00
1:19 AM,57.2,53.6,88,30.30,9.0,North,9.2,-,0.01,Rain,Light Rain,10,2012-09-14 05:19:00
1:54 AM,55.9,53.1,90,30.30,10.0,North,12.7,-,0.03,Rain,Light Rain,10,2012-09-14 05:54:00
2:54 AM,55.0,52.0,89,30.29,10.0,North,9.2,-,0.01,Rain,Light Rain,10,2012-09-14 06:54:00
3:23 AM,53.6,51.8,94,30.30,10.0,North,9.2,-,0.02,Rain,Light Rain,10,2012-09-14 07:23:00
3:54 AM,54.0,51.1,90,30.29,10.0,NNE,11.5,-,0.03,Rain,Light Rain,20,2012-09-14 07:54:00
4:54 AM,54.0,48.9,83,30.30,10.0,ENE,4.6,-,0.01,Rain,Light Rain,60,2012-09-14 08:54:00
5:54 AM,54.0,48.0,80,30.30,10.0,NNE,3.5,-,0.00,,Overcast,30,2012-09-14 09:54:00
6:54 AM,53.1,48.0,83,30.31,10.0,NNE,3.5,-,N/A,,Mostly Cloudy,30,2012-09-14 10:54:00
7:54 AM,53.1,48.9,86,30.32,10.0,Calm,Calm,-,N/A,,Overcast,0,2012-09-14 11:54:00
8:54 AM,55.4,50.0,82,30.33,10.0,North,4.6,-,N/A,,Clear,350,2012-09-14 12:54:00
9:54 AM,60.1,50.0,69,30.34,10.0,North,4.6,-,N/A,,Clear,360,2012-09-14 13:54:00
10:54 AM,63.0,50.0,63,30.34,10.0,NNE,6.9,-,N/A,,Clear,30,2012-09-14 14:54:00
11:54 AM,66.0,51.1,59,30.34,10.0,North,6.9,-,N/A,,Clear,360,2012-09-14 15:54:00
12:54 PM,69.1,50.0,51,30.33,10.0,NNW,9.2,-,N/A,,Partly Cloudy,340,2012-09-14 16:54:00
1:54 PM,70.0,48.9,47,30.32,10.0,West,8.1,-,N/A,,Partly Cloudy,280,2012-09-14 17:54:00
2:54 PM,71.1,50.0,47,30.31,10.0,NW,11.5,-,N/A,,Partly Cloudy,310,2012-09-14 18:54:00
3:54 PM,71.1,46.0,41,30.30,10.0,NNW,11.5,-,N/A,,Scattered Clouds,330,2012-09-14 19:54:00
4:54 PM,71.1,41.0,34,30.30,10.0,NW,6.9,-,N/A,,Clear,310,2012-09-14 20:54:00
5:54 PM,70.0,41.0,35,30.31,10.0,WNW,8.1,-,N/A,,Clear,300,2012-09-14 21:54:00
6:54 PM,69.1,42.1,38,30.31,10.0,NNW,3.5,-,N/A,,Clear,330,2012-09-14 22:54:00
7:54 PM,63.0,44.1,50,30.30,10.0,Calm,Calm,-,N/A,,Clear,0,2012-09-14 23:54:00
8:54 PM,57.0,46.9,69,30.31,10.0,Calm,Calm,-,N/A,,Clear,0,2012-09-15 00:54:00
9:54 PM,57.0,48.0,72,30.31,10.0,Calm,Calm,-,N/A,,Clear,0,2012-09-15 01:54:00
10:54 PM,55.0,48.0,77,30.32,10.0,Calm,Calm,-,N/A,,Clear,0,2012-09-15 02:54:00
11:54 PM,52.0,48.0,86,30.32,10.0,Calm,Calm,-,N/A,,Clear,0,2012-09-15 03:54:00